LiveATC.Net - Listen to live air traffic control over the Internet!
Airport/ARTCC Code
Frequency Search
(e.g., 124.400, 128.75)
Site-wide search
 


Browse LiveATC Feeds
Top 50 LiveATC Feeds
LiveATC Feed Map
Bad Weather Areas

LiveATC FAQ
Offer LiveATC feed
Contact LiveATC.net
Press Inquiries

LiveATC on iPhone
LiveATC on Android

Windows Phone
Windows 8/10

LiveATC Mobile
(Mobile browser)

ATC Audio Archives
Interesting Recordings

LiveATC Forums

Home Page
About LiveATC.net
Make a Donation
Terms of Use
Privacy Policy

Canadian Air Freqs

AIRMETs/SIGMETs

FAA Airport Status
Nat'l Airspace Status
Arrival Demand Charts


Server Software By:
Icecast.org
Liquidsoap

Select an area of interest:
U.S. Feeds: Class B Airports | Class C Airports | Class D/Other Airports | ARTCC (Centers)
International Feeds: Canada | Europe | Oceania | Asia | South America | North/Central America | Africa
Misc Feeds: HF Feeds
Search by ICAO/IATA airport code:   (e.g., kbos, kjfk, lax, eham, etc.)


Currently Available Live Feeds: 2466
Status Updated: Thu Aug 22 2019 05:49:38 UTC


NOTICE

Unauthorized use prohibited. See LiveATC.net Terms of Service

Asia Airport Feeds

 

LTAF Tower/Approach
Adana, Turkey

Feed Status: DOWN
Offline since: 2019-08-12 04:06:07 UTC

LTAF 220520Z 06003KT 360V120 9999 SCT035 29/23 Q1009 NOSIG

Adana Approach: 118.300
Adana Tower: 131.100
Adana Tower: 121.100

OBBI Gnd/Twr/App (Archives)
Muharraq, Bahrain

Feed Status: UP
Listen in your browser - HTML5 player(in browser, HTML5)
Click here to listen with your own player(launches your MP3 player)

OBBI 220530Z 26005KT 220V330 CAVOK 38/18 Q1002 NOSIG


Listeners: 1 out of 809 total

Bahrain Arrival: 127.850
Bahrain Departure: 119.100
Bahrain Ground: 121.850
Bahrain Tower: 118.500

OKBK Gnd/Twr/App/Radar (Archives)
Kuwait City, Kuwait

Feed Status: UP
Listen in your browser - HTML5 player(in browser, HTML5)
Click here to listen with your own player(launches your MP3 player)

OKBK 220500Z 35009KT CAVOK 37/13 Q1003 NOSIG


Listeners: 2 out of 809 total

Kuwait Approach: 121.300
Kuwait Approach: 124.800
Kuwait Ground: 121.700
Kuwait Radar (Center): 125.300
Kuwait Tower: 118.300

OMAA Approach (Archives)
Abu Dhabi, United Arab Emirates

Feed Status: UP
Listen in your browser - HTML5 player(in browser, HTML5)
Click here to listen with your own player(launches your MP3 player)

OMAA 220500Z 15005KT 120V260 8000 NSC 35/22 Q1002 NOSIG


Listeners: 0 out of 809 total

Abu Dhabi Approach: 124.400

OMDW Approach (Archives)
Jebel Ali, United Arab Emirates

Feed Status: UP
Listen in your browser - HTML5 player(in browser, HTML5)
Click here to listen with your own player(launches your MP3 player)

OMDW 220500Z 16003KT 110V210 7000 NSC 34/24 Q1004 NOSIG


Listeners: 0 out of 809 total

Al Maktoum Approach: 124.025

OPKC Gnd/Twr/Radar (Archives)
Karachi, Pakistan

Feed Status: UP
Listen in your browser - HTML5 player(in browser, HTML5)
Click here to listen with your own player(launches your MP3 player)

OPKC 220455Z 26010KT 5000 DZ BKN020 BKN030 30/24 Q1005 NOSIG


Listeners: 0 out of 809 total

Karachi Ground: 121.600
Karachi Radar: 125.500
Karachi Tower: 118.300

OPLA ATIS (Archives)
Lahore, Pakistan

Feed Status: UP
Listen in your browser - HTML5 player(in browser, HTML5)
Click here to listen with your own player(launches your MP3 player)

OPLA 220459Z 13004KT 6000 FEW040 34/24 Q1004 NOSIG RMK QFE979 RMK A29.66


Listeners: 0 out of 809 total

Lahore ATIS: 126.300

OPLA/OPLH Gnd/Twr/App (Archives)
Lahore, Pakistan

Feed Status: UP
Listen in your browser - HTML5 player(in browser, HTML5)
Click here to listen with your own player(launches your MP3 player)

OPLA 220459Z 13004KT 6000 FEW040 34/24 Q1004 NOSIG RMK QFE979 RMK A29.66


Listeners: 2 out of 809 total

Lahore Approach: 121.300
Lahore Approach: 125.300
Lahore Control: 127.500
Lahore Ground: 118.400
Lahore Tower: 118.100
Lahore Tower: 121.800
Walton (OPLH) Tower: 119.400

OPLA/OPLH Gnd/Twr/App (Archives)
Lahore, Pakistan

Feed Status: UP
Listen in your browser - HTML5 player(in browser, HTML5)
Click here to listen with your own player(launches your MP3 player)

OPLA 220459Z 13004KT 6000 FEW040 34/24 Q1004 NOSIG RMK QFE979 RMK A29.66


Listeners: 2 out of 809 total

Lahore Approach: 121.300
Lahore Approach: 125.300
Lahore Control: 127.500
Lahore Ground: 118.400
Lahore Tower: 118.100
Lahore Tower: 121.800
Walton (OPLH) Tower: 119.400

RCTP Approach
Taipei, Taiwan

Feed Status: DOWN
Offline since: 2019-08-21 23:21:22 UTC

RCTP 220500Z 32009KT 270V350 9999 FEW015 31/25 Q1005 NOSIG RMK A2970

Emergency/Guard: 121.500
Taipei Approach: 125.100
Taipei Approach: 125.600
Taipei Approach: 128.500

RCTP Tower
Taipei, Taiwan

Feed Status: DOWN
Offline since: 2019-08-21 23:21:22 UTC

RCTP 220500Z 32009KT 270V350 9999 FEW015 31/25 Q1005 NOSIG RMK A2970

Taipei Tower: 118.700

RJAA Approach (Archives)
Tokyo, Japan

Feed Status: UP
Listen in your browser - HTML5 player(in browser, HTML5)
Click here to listen with your own player(launches your MP3 player)

RJAA 220500Z 04004KT 340V080 9999 FEW012 BKN015 27/23 Q1009 NOSIG RMK 1CU012 7CU015 A2980

RJAA Flight Activity (Flightaware)

Listeners: 7 out of 809 total

Tokyo Approach: 124.400
Tokyo Approach: 127.700

RJAA Clearance Delivery (Archives)
Tokyo, Japan

Feed Status: UP
Listen in your browser - HTML5 player(in browser, HTML5)
Click here to listen with your own player(launches your MP3 player)

RJAA 220500Z 04004KT 340V080 9999 FEW012 BKN015 27/23 Q1009 NOSIG RMK 1CU012 7CU015 A2980

RJAA Flight Activity (Flightaware)

Listeners: 1 out of 809 total

Narita Clearance Delivery (Asia/Pacific): 121.650
Narita Clearance Delivery (US/Europe): 121.900

RJAA Clearance Delivery #1 (Archives)
Tokyo, Japan

Feed Status: UP
Listen in your browser - HTML5 player(in browser, HTML5)
Click here to listen with your own player(launches your MP3 player)

RJAA 220500Z 04004KT 340V080 9999 FEW012 BKN015 27/23 Q1009 NOSIG RMK 1CU012 7CU015 A2980

RJAA Flight Activity (Flightaware)

Listeners: 0 out of 809 total

Narita Clearance Delivery (Asia/Pacific): 121.650

RJAA Clearance Delivery #2 (Archives)
Tokyo, Japan

Feed Status: UP
Listen in your browser - HTML5 player(in browser, HTML5)
Click here to listen with your own player(launches your MP3 player)

RJAA 220500Z 04004KT 340V080 9999 FEW012 BKN015 27/23 Q1009 NOSIG RMK 1CU012 7CU015 A2980

RJAA Flight Activity (Flightaware)

Listeners: 0 out of 809 total

Narita Clearance Delivery (US/Europe): 121.900

RJAA Company Channels (Archives)
Tokyo, Japan

Feed Status: UP
Listen in your browser - HTML5 player(in browser, HTML5)
Click here to listen with your own player(launches your MP3 player)

RJAA 220500Z 04004KT 340V080 9999 FEW012 BKN015 27/23 Q1009 NOSIG RMK 1CU012 7CU015 A2980

RJAA Flight Activity (Flightaware)

Listeners: 0 out of 809 total

Ops: 130.450
Ops: 130.550
Ops: 130.900
Ops: 131.025
Ops: 131.100
Ops: 131.200
Ops: 131.700
Ops: 131.750

RJAA Departure (Archives)
Tokyo, Japan

Feed Status: UP
Listen in your browser - HTML5 player(in browser, HTML5)
Click here to listen with your own player(launches your MP3 player)

RJAA 220500Z 04004KT 340V080 9999 FEW012 BKN015 27/23 Q1009 NOSIG RMK 1CU012 7CU015 A2980

RJAA Flight Activity (Flightaware)

Listeners: 1 out of 809 total

Tokyo Departure: 119.600
Tokyo Departure: 124.200

RJAA Departure #1 (Archives)
Tokyo, Japan

Feed Status: UP
Listen in your browser - HTML5 player(in browser, HTML5)
Click here to listen with your own player(launches your MP3 player)

RJAA 220500Z 04004KT 340V080 9999 FEW012 BKN015 27/23 Q1009 NOSIG RMK 1CU012 7CU015 A2980

RJAA Flight Activity (Flightaware)

Listeners: 1 out of 809 total

Tokyo Departure: 124.200

RJAA Departure #2 (Archives)
Tokyo, Japan

Feed Status: UP
Listen in your browser - HTML5 player(in browser, HTML5)
Click here to listen with your own player(launches your MP3 player)

RJAA 220500Z 04004KT 340V080 9999 FEW012 BKN015 27/23 Q1009 NOSIG RMK 1CU012 7CU015 A2980

RJAA Flight Activity (Flightaware)

Listeners: 0 out of 809 total

Tokyo Departure: 119.600

RJAA Emergency/Guard (Archives)
Tokyo, Japan

Feed Status: UP
Listen in your browser - HTML5 player(in browser, HTML5)
Click here to listen with your own player(launches your MP3 player)

RJAA 220500Z 04004KT 340V080 9999 FEW012 BKN015 27/23 Q1009 NOSIG RMK 1CU012 7CU015 A2980

RJAA Flight Activity (Flightaware)

Listeners: 1 out of 809 total

Emergency/Guard: 121.500

RJAA Ground #1 (Archives)
Tokyo, Japan

Feed Status: UP
Listen in your browser - HTML5 player(in browser, HTML5)
Click here to listen with your own player(launches your MP3 player)

RJAA 220500Z 04004KT 340V080 9999 FEW012 BKN015 27/23 Q1009 NOSIG RMK 1CU012 7CU015 A2980

RJAA Flight Activity (Flightaware)

Listeners: 0 out of 809 total

Narita Ground: 121.850

RJAA Ground #2 (Archives)
Tokyo, Japan

Feed Status: UP
Listen in your browser - HTML5 player(in browser, HTML5)
Click here to listen with your own player(launches your MP3 player)

RJAA 220500Z 04004KT 340V080 9999 FEW012 BKN015 27/23 Q1009 NOSIG RMK 1CU012 7CU015 A2980

RJAA Flight Activity (Flightaware)

Listeners: 2 out of 809 total

Narita Ground: 121.950

RJAA Radar (Archives)
Tokyo, Japan

Feed Status: UP
Listen in your browser - HTML5 player(in browser, HTML5)
Click here to listen with your own player(launches your MP3 player)

RJAA 220500Z 04004KT 340V080 9999 FEW012 BKN015 27/23 Q1009 NOSIG RMK 1CU012 7CU015 A2980

RJAA Flight Activity (Flightaware)

Listeners: 0 out of 809 total

Tokyo Radar: 120.200

RJAA Ramp #1 (Archives)
Tokyo, Japan

Feed Status: UP
Listen in your browser - HTML5 player(in browser, HTML5)
Click here to listen with your own player(launches your MP3 player)

RJAA 220500Z 04004KT 340V080 9999 FEW012 BKN015 27/23 Q1009 NOSIG RMK 1CU012 7CU015 A2980

RJAA Flight Activity (Flightaware)

Listeners: 0 out of 809 total

Narita Ramp: 121.600

RJAA Ramp #2 (Archives)
Tokyo, Japan

Feed Status: UP
Listen in your browser - HTML5 player(in browser, HTML5)
Click here to listen with your own player(launches your MP3 player)

RJAA 220500Z 04004KT 340V080 9999 FEW012 BKN015 27/23 Q1009 NOSIG RMK 1CU012 7CU015 A2980

RJAA Flight Activity (Flightaware)

Listeners: 1 out of 809 total

Narita Ramp: 121.750

RJAA TCA (Archives)
Tokyo, Japan

Feed Status: UP
Listen in your browser - HTML5 player(in browser, HTML5)
Click here to listen with your own player(launches your MP3 player)

RJAA 220500Z 04004KT 340V080 9999 FEW012 BKN015 27/23 Q1009 NOSIG RMK 1CU012 7CU015 A2980

RJAA Flight Activity (Flightaware)

Listeners: 1 out of 809 total

Tokyo TCA (Terminal Control Area): 119.450

RJAA Tokyo Control (Archives)
Tokyo, Japan

Feed Status: UP
Listen in your browser - HTML5 player(in browser, HTML5)
Click here to listen with your own player(launches your MP3 player)

RJAA 220500Z 04004KT 340V080 9999 FEW012 BKN015 27/23 Q1009 NOSIG RMK 1CU012 7CU015 A2980

RJAA Flight Activity (Flightaware)

Listeners: 0 out of 809 total

Tokyo Control: 125.900

RJAA Tower #1 (Archives)
Tokyo, Japan

Feed Status: UP
Listen in your browser - HTML5 player(in browser, HTML5)
Click here to listen with your own player(launches your MP3 player)

RJAA 220500Z 04004KT 340V080 9999 FEW012 BKN015 27/23 Q1009 NOSIG RMK 1CU012 7CU015 A2980

RJAA Flight Activity (Flightaware)

Listeners: 6 out of 809 total

Narita Tower (Rwy 16R/34L): 118.200

RJAA Tower #2 (Archives)
Tokyo, Japan

Feed Status: UP
Listen in your browser - HTML5 player(in browser, HTML5)
Click here to listen with your own player(launches your MP3 player)

RJAA 220500Z 04004KT 340V080 9999 FEW012 BKN015 27/23 Q1009 NOSIG RMK 1CU012 7CU015 A2980

RJAA Flight Activity (Flightaware)

Listeners: 1 out of 809 total

Narita Tower (Rwy 16L/34R): 118.350

RJOO Tower (Archives)
Osaka, Japan

Feed Status: UP
Listen in your browser - HTML5 player(in browser, HTML5)
Click here to listen with your own player(launches your MP3 player)

RJOO 220500Z 24007KT 210V300 9999 FEW025 BKN/// 33/24 Q1007 RMK 1CU025 A2976

RJOO Flight Activity (Flightaware)

Listeners: 5 out of 809 total

Osaka Tower: 118.100

RJSF RDO
Sukagawa, Japan

Feed Status: DOWN
Offline since: 2019-08-22 05:26:05 UTC

RJSF 220500Z 20004KT 9999 -SHRA FEW010 BKN020 BKN120 25/22 Q1011

Fukushima Radio: 118.050

RJTT App/Dep (Archives)
Tokyo, Japan

Feed Status: UP
Listen in your browser - HTML5 player(in browser, HTML5)
Click here to listen with your own player(launches your MP3 player)

RJTT 220500Z 08005KT 9999 FEW015 SCT030 BKN/// 29/25 Q1008 NOSIG RMK 1CU015 4CU030 A2979

RJTT Flight Activity (Flightaware)

Listeners: 16 out of 809 total

Tokyo Approach: 119.100
Tokyo Approach: 119.400
Tokyo Departure: 120.800
Tokyo Departure: 126.000

RJTT Approach (Archives)
Tokyo, Japan

Feed Status: UP
Listen in your browser - HTML5 player(in browser, HTML5)
Click here to listen with your own player(launches your MP3 player)

RJTT 220500Z 08005KT 9999 FEW015 SCT030 BKN/// 29/25 Q1008 NOSIG RMK 1CU015 4CU030 A2979

RJTT Flight Activity (Flightaware)

Listeners: 8 out of 809 total

Tokyo Approach: 119.100
Tokyo Approach: 119.400

RJTT ATIS (Archives)
Tokyo, Japan

Feed Status: UP
Listen in your browser - HTML5 player(in browser, HTML5)
Click here to listen with your own player(launches your MP3 player)

RJTT 220500Z 08005KT 9999 FEW015 SCT030 BKN/// 29/25 Q1008 NOSIG RMK 1CU015 4CU030 A2979

RJTT Flight Activity (Flightaware)

Listeners: 0 out of 809 total

Tokyo ATIS: 128.800

RJTT Company Channels (Archives)
Tokyo, Japan

Feed Status: UP
Listen in your browser - HTML5 player(in browser, HTML5)
Click here to listen with your own player(launches your MP3 player)

RJTT 220500Z 08005KT 9999 FEW015 SCT030 BKN/// 29/25 Q1008 NOSIG RMK 1CU015 4CU030 A2979

RJTT Flight Activity (Flightaware)

Listeners: 13 out of 809 total

Company TBD: 128.500
Company TBD: 131.850
Company TBD: 129.725
Company TBD: 129.700
Company TBD: 131.900
Company TBD: 129.850
Company TBD: 128.975
Company TBD: 123.675
Company TBD: 132.075

RJTT Del/Ground (Archives)
Tokyo, Japan

Feed Status: UP
Listen in your browser - HTML5 player(in browser, HTML5)
Click here to listen with your own player(launches your MP3 player)

RJTT 220500Z 08005KT 9999 FEW015 SCT030 BKN/// 29/25 Q1008 NOSIG RMK 1CU015 4CU030 A2979

RJTT Flight Activity (Flightaware)

Listeners: 3 out of 809 total

Tokyo Clearance Delivery: 121.825
Tokyo Ground: 121.700
Tokyo Ground: 118.225
Tokyo Ground: 121.625
Tokyo Ground: 121.975

RJTT Del/Twr/TCA/Gnd (Archives)
Tokyo, Japan

Feed Status: UP
Listen in your browser - HTML5 player(in browser, HTML5)
Click here to listen with your own player(launches your MP3 player)

RJTT 220500Z 08005KT 9999 FEW015 SCT030 BKN/// 29/25 Q1008 NOSIG RMK 1CU015 4CU030 A2979

RJTT Flight Activity (Flightaware)

Listeners: 8 out of 809 total

Tokyo Clearance Delivery: 121.825
Tokyo Ground: 121.975
Tokyo Ground: 121.625
Tokyo Ground: 121.700
Tokyo Ground: 118.225
Tokyo TCA: 124.750
Tokyo Tower: 118.100
Tokyo Tower: 118.575
Tokyo Tower: 118.725
Tokyo Tower: 124.350

RJTT Departure (Archives)
Tokyo, Japan

Feed Status: UP
Listen in your browser - HTML5 player(in browser, HTML5)
Click here to listen with your own player(launches your MP3 player)

RJTT 220500Z 08005KT 9999 FEW015 SCT030 BKN/// 29/25 Q1008 NOSIG RMK 1CU015 4CU030 A2979

RJTT Flight Activity (Flightaware)

Listeners: 2 out of 809 total

Tokyo Departure: 120.800
Tokyo Departure: 126.000

RJTT Tokyo Control (Archives)
Tokyo, Japan

Feed Status: UP
Listen in your browser - HTML5 player(in browser, HTML5)
Click here to listen with your own player(launches your MP3 player)

RJTT 220500Z 08005KT 9999 FEW015 SCT030 BKN/// 29/25 Q1008 NOSIG RMK 1CU015 4CU030 A2979

RJTT Flight Activity (Flightaware)

Listeners: 20 out of 809 total

Tokyo Control: 133.700
Tokyo Control: 125.900
Tokyo Control: 120.500

RJTT Twr/TCA (Archives)
Tokyo, Japan

Feed Status: UP
Listen in your browser - HTML5 player(in browser, HTML5)
Click here to listen with your own player(launches your MP3 player)

RJTT 220500Z 08005KT 9999 FEW015 SCT030 BKN/// 29/25 Q1008 NOSIG RMK 1CU015 4CU030 A2979

RJTT Flight Activity (Flightaware)

Listeners: 10 out of 809 total

Tokyo TCA: 124.750
Tokyo Tower: 118.100
Tokyo Tower: 118.575
Tokyo Tower: 118.725
Tokyo Tower: 124.350

RJTY Approach (Archives)
Tokyo, Japan

Feed Status: UP
Listen in your browser - HTML5 player(in browser, HTML5)
Click here to listen with your own player(launches your MP3 player)

RJTY 220456Z 00000KT 10SM OVC023 28/23 A2986 RMK AO2A OVC V BKN CIG 020 RWY18 SLP108 T02820226 FZRANO $

RJTY Flight Activity (Flightaware)

Listeners: 5 out of 809 total

Yokota Approach: 118.300
Yokota APproach: 123.800
Yokota Approach: 120.700

RJTY ATIS (Archives)
Tokyo, Japan

Feed Status: UP
Listen in your browser - HTML5 player(in browser, HTML5)
Click here to listen with your own player(launches your MP3 player)

RJTY 220456Z 00000KT 10SM OVC023 28/23 A2986 RMK AO2A OVC V BKN CIG 020 RWY18 SLP108 T02820226 FZRANO $

RJTY Flight Activity (Flightaware)

Listeners: 0 out of 809 total

Yokota ATIS: 126.400

RJTY Ground (Archives)
Tokyo, Japan

Feed Status: UP
Listen in your browser - HTML5 player(in browser, HTML5)
Click here to listen with your own player(launches your MP3 player)

RJTY 220456Z 00000KT 10SM OVC023 28/23 A2986 RMK AO2A OVC V BKN CIG 020 RWY18 SLP108 T02820226 FZRANO $

RJTY Flight Activity (Flightaware)

Listeners: 0 out of 809 total

Yokota Ground: 133.200

RJTY Ground/Tower (Archives)
Tokyo, Japan

Feed Status: UP
Listen in your browser - HTML5 player(in browser, HTML5)
Click here to listen with your own player(launches your MP3 player)

RJTY 220456Z 00000KT 10SM OVC023 28/23 A2986 RMK AO2A OVC V BKN CIG 020 RWY18 SLP108 T02820226 FZRANO $

RJTY Flight Activity (Flightaware)

Listeners: 5 out of 809 total

Yokota Ground: 133.200
Yokota Tower: 134.300

RJTY Tower (Archives)
Tokyo, Japan

Feed Status: UP
Listen in your browser - HTML5 player(in browser, HTML5)
Click here to listen with your own player(launches your MP3 player)

RJTY 220456Z 00000KT 10SM OVC023 28/23 A2986 RMK AO2A OVC V BKN CIG 020 RWY18 SLP108 T02820226 FZRANO $

RJTY Flight Activity (Flightaware)

Listeners: 1 out of 809 total

Yokota Tower: 134.300

RKSG Gnd/Twr/App (Archives)
Pyeongtaek, Korea, Republic of

Feed Status: UP
Listen in your browser - HTML5 player(in browser, HTML5)
Click here to listen with your own player(launches your MP3 player)

RKSG 220456Z 27007KT 4SM HZ FEW190 30/19 A2971 RMK AO2A SLP059 ALSTG/SLP ESTMD $

RKSG Flight Activity (Flightaware)

Listeners: 0 out of 809 total

Desiderio Final: 255.800
Desiderio GCA: 226.800
Desiderio GCA: 127.000
Desiderio Ground (Camp Humphreys A-511 AAF): 119.500
Desiderio Ground UHF: 229.700
Desiderio Ops: 294.100
Desiderio Tower (Camp Humphreys A-511 AAF): 122.500
Desiderio Tower UHF: 257.800

RKRR Incheon Control (Archives)
Incheon, Korea, Republic of

Feed Status: UP
Listen in your browser - HTML5 player(in browser, HTML5)
Click here to listen with your own player(launches your MP3 player)

RKSI 220500Z 28011KT CAVOK 28/16 Q1006 NOSIG

RKSI Flight Activity (Flightaware)

Listeners: 3 out of 809 total

Incheon Control North Sector (Primary): 128.700
Incheon Control North Sector (Secondary): 132.800
Incheon Control Northwest Sector (Primary): 126.175
Incheon Control Northwest Sector (Secondary): 123.725

RKSO Gnd/Twr/App (Archives)
Pyeongtaek, Korea, Republic of

Feed Status: UP
Listen in your browser - HTML5 player(in browser, HTML5)
Click here to listen with your own player(launches your MP3 player)

RKSO 220458Z 27007KT 6SM HZ SCT200 31/21 A2968 RMK AO2A SLP053 T03090207 $

RKSO Flight Activity (Flightaware)

Listeners: 1 out of 809 total

25 FS Ops: 229.000
36FS Ops: 371.300
Osan Air Base Approach/Departure: 127.900
Osan Air Base Approach/Departure: 133.650
Osan Air Base Ground: 132.450
Osan Air Base Tower: 122.100
Osan App/Dep UHF: 306.600
Osan App/Dep UHF: 234.300
Osan App/Dep UHF (possibly inactive): 306.300
Osan App/Dep UHF (possibly inactive): 363.100
Osan Ground UHF: 253.700
Osan SAR: 282.800
Osan SAR: 381.000
Osan SOF: 299.800
Osan Tower UHF: 308.800
Stallion Ops: 276.200

ROAH Gnd/Twr/App (Archives)
Okinawa, Japan

Feed Status: UP
Listen in your browser - HTML5 player(in browser, HTML5)
Click here to listen with your own player(launches your MP3 player)

RODN 220516Z AUTO 09011KT 10SM SCT023 BKN034 BKN047 33/26 A2979 RMK AO2 SLP092 $

RODN Flight Activity (Flightaware)

Listeners: 1 out of 809 total


ROAH Naha ACC (Archives)
Okinawa, Japan

Feed Status: UP
Listen in your browser - HTML5 player(in browser, HTML5)
Click here to listen with your own player(launches your MP3 player)

RODN 220516Z AUTO 09011KT 10SM SCT023 BKN034 BKN047 33/26 A2979 RMK AO2 SLP092 $

RODN Flight Activity (Flightaware)

Listeners: 0 out of 809 total


RODN Gnd/Twr/App (Archives)
Okinawa, Japan

Feed Status: UP
Listen in your browser - HTML5 player(in browser, HTML5)
Click here to listen with your own player(launches your MP3 player)

RODN 220516Z AUTO 09011KT 10SM SCT023 BKN034 BKN047 33/26 A2979 RMK AO2 SLP092 $

RODN Flight Activity (Flightaware)

Listeners: 3 out of 809 total


ROTM Gnd/Twr (Archives)
Okinawa, Japan

Feed Status: UP
Listen in your browser - HTML5 player(in browser, HTML5)
Click here to listen with your own player(launches your MP3 player)

RODN 220516Z AUTO 09011KT 10SM SCT023 BKN034 BKN047 33/26 A2979 RMK AO2 SLP092 $

RODN Flight Activity (Flightaware)

Listeners: 1 out of 809 total


RPLL ACC 125.7 (Archives)
Manila, Philippines

Feed Status: UP
Listen in your browser - HTML5 player(in browser, HTML5)
Click here to listen with your own player(launches your MP3 player)

RPLL 220500Z 30010KT 270V350 9999 FEW023 SCT090 30/25 Q1007 NOSIG RMK A2974

RPLL Flight Activity (Flightaware)

Listeners: 2 out of 809 total

Manila Control: 125.700

RPLL App/Dep 119.7 (Archives)
Manila, Philippines

Feed Status: UP
Listen in your browser - HTML5 player(in browser, HTML5)
Click here to listen with your own player(launches your MP3 player)

RPLL 220500Z 30010KT 270V350 9999 FEW023 SCT090 30/25 Q1007 NOSIG RMK A2974

RPLL Flight Activity (Flightaware)

Listeners: 0 out of 809 total

Manila Approach/Departure: 119.700

RPLL App/Dep 121.1 (Archives)
Manila, Philippines

Feed Status: UP
Listen in your browser - HTML5 player(in browser, HTML5)
Click here to listen with your own player(launches your MP3 player)

RPLL 220500Z 30010KT 270V350 9999 FEW023 SCT090 30/25 Q1007 NOSIG RMK A2974

RPLL Flight Activity (Flightaware)

Listeners: 0 out of 809 total

Manila Approach/Departure: 121.100

RPLL App/Dep 124.4 (Archives)
Manila, Philippines

Feed Status: UP
Listen in your browser - HTML5 player(in browser, HTML5)
Click here to listen with your own player(launches your MP3 player)

RPLL 220500Z 30010KT 270V350 9999 FEW023 SCT090 30/25 Q1007 NOSIG RMK A2974

RPLL Flight Activity (Flightaware)

Listeners: 0 out of 809 total

Manila Approach/.Departure: 124.400

RPLL App/Dep 124.8 (Archives)
Manila, Philippines

Feed Status: UP
Listen in your browser - HTML5 player(in browser, HTML5)
Click here to listen with your own player(launches your MP3 player)

RPLL 220500Z 30010KT 270V350 9999 FEW023 SCT090 30/25 Q1007 NOSIG RMK A2974

RPLL Flight Activity (Flightaware)

Listeners: 0 out of 809 total

Manila Approach/.Departure: 124.800

RPLL ATIS (Archives)
Manila, Philippines

Feed Status: UP
Listen in your browser - HTML5 player(in browser, HTML5)
Click here to listen with your own player(launches your MP3 player)

RPLL 220500Z 30010KT 270V350 9999 FEW023 SCT090 30/25 Q1007 NOSIG RMK A2974

RPLL Flight Activity (Flightaware)

Listeners: 0 out of 809 total

Manila ATIS: 126.400

RPLL Clearance Delivery (Archives)
Manila, Philippines

Feed Status: UP
Listen in your browser - HTML5 player(in browser, HTML5)
Click here to listen with your own player(launches your MP3 player)

RPLL 220500Z 30010KT 270V350 9999 FEW023 SCT090 30/25 Q1007 NOSIG RMK A2974

RPLL Flight Activity (Flightaware)

Listeners: 1 out of 809 total

Manila Clearance Delivery (Primary): 125.100
Manila Clearance Delivery (Secondary): 125.500

RPLL Ground (Archives)
Manila, Philippines

Feed Status: UP
Listen in your browser - HTML5 player(in browser, HTML5)
Click here to listen with your own player(launches your MP3 player)

RPLL 220500Z 30010KT 270V350 9999 FEW023 SCT090 30/25 Q1007 NOSIG RMK A2974

RPLL Flight Activity (Flightaware)

Listeners: 0 out of 809 total

Manila Ground: 121.800

RPLL Ramp/Taxi (Archives)
Manila, Philippines

Feed Status: UP
Listen in your browser - HTML5 player(in browser, HTML5)
Click here to listen with your own player(launches your MP3 player)

RPLL 220500Z 30010KT 270V350 9999 FEW023 SCT090 30/25 Q1007 NOSIG RMK A2974

RPLL Flight Activity (Flightaware)

Listeners: 0 out of 809 total

Manila Ramp/Taxi: 121.350
Manila Ramp/Taxi: 121.700

RPLL Tower (Archives)
Manila, Philippines

Feed Status: UP
Listen in your browser - HTML5 player(in browser, HTML5)
Click here to listen with your own player(launches your MP3 player)

RPLL 220500Z 30010KT 270V350 9999 FEW023 SCT090 30/25 Q1007 NOSIG RMK A2974

RPLL Flight Activity (Flightaware)

Listeners: 1 out of 809 total

Manila Tower: 118.100

HF CWP/SEA (Archives)
Pyeongtaek, Korea, Republic of

Feed Status: UP
Listen in your browser - HTML5 player(in browser, HTML5)
Click here to listen with your own player(launches your MP3 player)


Listeners: 1 out of 809 total

CWP 1 (Tokyo): 11.384
CWP 1/2 (Tokyo): 13.300
CWP-1/2 (San Francisco): 17.904
CWP-1/2 (Tokyo/Manila): 8.903
CWP-1/2 (Tokyo/San Francisco): 21.985
SEA-2 (Manila): 8.942

Receiver location: Seoul, Korea

UAAA Approach
Almaty, Kazakhstan

Feed Status: DOWN
Offline since: 2019-08-03 08:57:40 UTC

UAAA 220500Z VRB01MPS 9999 FEW050 29/08 Q1009 R05R/CLRD65 NOSIG

Almaty Approach: 124.800

UAAA Tower
Almaty, Kazakhstan

Feed Status: DOWN
Offline since: 2019-08-03 08:57:40 UTC

UAAA 220500Z VRB01MPS 9999 FEW050 29/08 Q1009 R05R/CLRD65 NOSIG

Almaty Tower: 119.400

UAAA Tower/Approach
Almaty, Kazakhstan

Feed Status: DOWN
Offline since: 2019-08-03 08:57:40 UTC

UAAA 220500Z VRB01MPS 9999 FEW050 29/08 Q1009 R05R/CLRD65 NOSIG

Almaty Approach: 124.800
Almaty Tower: 119.400

UNNT Gnd/Twr/App/Radar/Misc (Archives)
Novosibirsk, Russia

Feed Status: UP
Listen in your browser - HTML5 player(in browser, HTML5)
Click here to listen with your own player(launches your MP3 player)

UNNT 220500Z VRB02MPS 9999 SCT020 17/10 Q1010 R25/090070 R16/090070 NOSIG RMK QFE747/0997

UNNT Flight Activity (Flightaware)

Listeners: 15 out of 809 total

ACC_Novosibirsk-Control [5th military channel]: 128.500
ACC_Novosibirsk-Control [Southeast]: 126.100
ACC_Novosibirsk-Control [West]: 127.000
GPA_Kristallik [Severniy airfield]: 123.425
GPA_Sernisiy [Chkalovskiy airfield]: 124.750
GPA_Tomsk Information 1: 134.500
MIL_3 [3rd military channel]: 130.750
MIL_Larek [Shilovo facility]: 123.750
MIL_Maneken [Chkalovskiy airfield]: 123.550
MIL_Novosibirsk-1 [1st military channel]: 124.000
MIL_Noyabr' 31: 124.900
MIL_Trimaran: 124.500
SP_Air-to-Air: 123.450
SP_Air-to-Air 2: 123.400
SP_Common backup frequency: 129.000
SP_Emergency: 121.500
SP_Emergency 2: 123.100
SP_Flyoff: 124.375
SURF_Boarding: 163.425
SURF_Duty chart: 163.800
SURF_O&D Service: 163.325
SURF_Search & Rescue: 164.000
SURF_Security: 163.750
SURF_Tower surf: 163.650
SURF_Vehicles: 163.850
UNNT_Backup frequency: 127.100
UNNT_Novosibirsk-Approach: 127.500
UNNT_Novosibirsk-Ground: 121.700
UNNT_Novosibirsk-Radar: 122.000
UNNT_Novosibirsk-Tower: 118.500
UNNT_Novosibirsk-Transit: 131.600
UNNT_S7 FOCC: 131.925

UNOO Gnd/Tower/App (Archives)
Omsk, Russia

Feed Status: UP
Listen in your browser - HTML5 player(in browser, HTML5)
Click here to listen with your own player(launches your MP3 player)

UNOO 220500Z 32002MPS 9999 BKN010 BKN024CB 16/12 Q1013 R25/290150 NOSIG RMK QFE751

UNOO Flight Activity (Flightaware)

Listeners: 0 out of 809 total

Aerodrom Kalachevo: 123.300
Aerodrom Marianovka: 123.000
Emergency/Guard: 121.500
Novosibirsk Control (Sector 7): 132.500
Novosibirsk Control (Sector 8): 132.900
Omsk Approach (FL060-FL265): 131.200
Omsk Apron: 118.800
Omsk Start/Radar: 119.000
Omsk Taxiing: 121.700
Omsk Transit: 131.700
UNOS/OMSK-Severny: 124.000

UNTT Gnd/Info/Radar/Control (Archives)
Tomsk, Russia

Feed Status: UP
Listen in your browser - HTML5 player(in browser, HTML5)
Click here to listen with your own player(launches your MP3 player)

UNTT Flight Activity (Flightaware)

Listeners: 0 out of 809 total

Common Backup Frequency: 129.000
Emergency/Guard: 121.500
Novosibirsk Control (Sector 2): 126.100
Novosibirsk Control (Sector 3): 129.300
Novosibirsk Control (Sector 5): 132.300
Tomsk Ground: 118.800
Tomsk Information 1: 134.500
Tomsk Krug (Radar): 127.300
Tomsk Transit: 131.875
Troynik (Golovino): 122.400

USTR Gnd/Twr/App (Archives)
Tyumen, Russia

Feed Status: UP
Listen in your browser - HTML5 player(in browser, HTML5)
Click here to listen with your own player(launches your MP3 player)

USTR 220500Z 31004MPS 290V350 9999 SCT005 15/14 Q1019 R30/CLRD65 R21/CLRD65 NOSIG RMK QBB150 QFE755/1007

USTR Flight Activity (Flightaware)

Listeners: 0 out of 809 total

Tyumen Approach: 126.100
Tyumen Control: 132.600
Tyumen Control: 133.600
Tyumen Info (Regional): 133.400
Tyumen Start: 118.200
Tyumen Transit: 131.800

USUU Twr/App/Control
Kurgan, Russia

Feed Status: DOWN
Offline since: 2019-08-20 15:20:40 UTC

Aerodromnaya 50: 164.100
Baggage Handling: 164.025
Kurgan Approach: 120.300
Kurgan Tower: 134.300
Kurgan/USUU Transit: 131.700
Kurtamysh: 122.450
Ural Control Sector 4: 119.700
USUL Tower: 129.600

VCBI Director
Colombo, Sri Lanka

Feed Status: DOWN
Offline since: 2019-08-19 06:19:40 UTC

VCBI 220510Z 25013KT 220V280 9000 FEW013 SCT017 27/24 Q1012 RESHRA NOSIG

Colombo Director: 132.400

VHHH Approach 119.1 #1 (Archives)
Hong Kong, Hong Kong

Feed Status: UP
Listen in your browser - HTML5 player(in browser, HTML5)
Click here to listen with your own player(launches your MP3 player)

VHHH 220500Z 27007KT 9999 FEW030 32/25 Q1006 NOSIG

VHHH Flight Activity (Flightaware)

Listeners: 2 out of 809 total

Hong Kong Approach: 119.100

VHHH Approach 119.1 #2 (Archives)
Hong Kong, Hong Kong

Feed Status: UP
Listen in your browser - HTML5 player(in browser, HTML5)
Click here to listen with your own player(launches your MP3 player)

VHHH 220500Z 27007KT 9999 FEW030 32/25 Q1006 NOSIG

VHHH Flight Activity (Flightaware)

Listeners: 0 out of 809 total

Hong Kong Approach: 119.100

VHHH ATIS (Archives)
Hong Kong, Hong Kong

Feed Status: UP
Listen in your browser - HTML5 player(in browser, HTML5)
Click here to listen with your own player(launches your MP3 player)

VHHH 220500Z 27007KT 9999 FEW030 32/25 Q1006 NOSIG

VHHH Flight Activity (Flightaware)

Listeners: 0 out of 809 total

Hong Kong Arrival ATIS: 128.200

VHHH Clearance Delivery (Archives)
Hong Kong, Hong Kong

Feed Status: UP
Listen in your browser - HTML5 player(in browser, HTML5)
Click here to listen with your own player(launches your MP3 player)

VHHH 220500Z 27007KT 9999 FEW030 32/25 Q1006 NOSIG

VHHH Flight Activity (Flightaware)

Listeners: 1 out of 809 total

Hong Kong Clearance Delivery: 129.900

VHHH Departure (Primary) (Archives)
Hong Kong, Hong Kong

Feed Status: UP
Listen in your browser - HTML5 player(in browser, HTML5)
Click here to listen with your own player(launches your MP3 player)

VHHH 220500Z 27007KT 9999 FEW030 32/25 Q1006 NOSIG

VHHH Flight Activity (Flightaware)

Listeners: 0 out of 809 total

Hong Kong Departure: 123.800

VHHH Director #1 (Archives)
Hong Kong, Hong Kong

Feed Status: UP
Listen in your browser - HTML5 player(in browser, HTML5)
Click here to listen with your own player(launches your MP3 player)

VHHH 220500Z 27007KT 9999 FEW030 32/25 Q1006 NOSIG

VHHH Flight Activity (Flightaware)

Listeners: 0 out of 809 total

Hong Kong Director: 119.500

VHHH Director #2 (Archives)
Hong Kong, Hong Kong

Feed Status: UP
Listen in your browser - HTML5 player(in browser, HTML5)
Click here to listen with your own player(launches your MP3 player)

VHHH 220500Z 27007KT 9999 FEW030 32/25 Q1006 NOSIG

VHHH Flight Activity (Flightaware)

Listeners: 0 out of 809 total

Hong Kong Director: 119.500

VHHH Ground (Archives)
Hong Kong, Hong Kong

Feed Status: UP
Listen in your browser - HTML5 player(in browser, HTML5)
Click here to listen with your own player(launches your MP3 player)

VHHH 220500Z 27007KT 9999 FEW030 32/25 Q1006 NOSIG

VHHH Flight Activity (Flightaware)

Listeners: 0 out of 809 total

Hong Kong Ground (North): 121.600
Hong Kong Ground (South): 122.550

VHHH Ground (North) (Archives)
Hong Kong, Hong Kong

Feed Status: UP
Listen in your browser - HTML5 player(in browser, HTML5)
Click here to listen with your own player(launches your MP3 player)

VHHH 220500Z 27007KT 9999 FEW030 32/25 Q1006 NOSIG

VHHH Flight Activity (Flightaware)

Listeners: 0 out of 809 total

Hong Kong Ground (North): 121.600

VHHH Ground (South) (Archives)
Hong Kong, Hong Kong

Feed Status: UP
Listen in your browser - HTML5 player(in browser, HTML5)
Click here to listen with your own player(launches your MP3 player)

VHHH 220500Z 27007KT 9999 FEW030 32/25 Q1006 NOSIG

VHHH Flight Activity (Flightaware)

Listeners: 1 out of 809 total

Hong Kong Ground (South): 122.550

VHHH Hong Kong Radar (Archives)
Hong Kong, Hong Kong

Feed Status: UP
Listen in your browser - HTML5 player(in browser, HTML5)
Click here to listen with your own player(launches your MP3 player)

VHHH 220500Z 27007KT 9999 FEW030 32/25 Q1006 NOSIG

VHHH Flight Activity (Flightaware)

Listeners: 1 out of 809 total

Hong Kong Radar: 121.300
Hong Kong Radar: 118.925
Hong Kong Radar: 123.950

VHHH Tower (Archives)
Hong Kong, Hong Kong

Feed Status: UP
Listen in your browser - HTML5 player(in browser, HTML5)
Click here to listen with your own player(launches your MP3 player)

VHHH 220500Z 27007KT 9999 FEW030 32/25 Q1006 NOSIG

VHHH Flight Activity (Flightaware)

Listeners: 0 out of 809 total

Hong Kong Tower (North): 118.200
Hong Kong Tower (South): 118.400

VHHH Tower (North) (Archives)
Hong Kong, Hong Kong

Feed Status: UP
Listen in your browser - HTML5 player(in browser, HTML5)
Click here to listen with your own player(launches your MP3 player)

VHHH 220500Z 27007KT 9999 FEW030 32/25 Q1006 NOSIG

VHHH Flight Activity (Flightaware)

Listeners: 0 out of 809 total

Hong Kong Tower (North): 118.200

VHHH Tower (South) (Archives)
Hong Kong, Hong Kong

Feed Status: UP
Listen in your browser - HTML5 player(in browser, HTML5)
Click here to listen with your own player(launches your MP3 player)

VHHH 220500Z 27007KT 9999 FEW030 32/25 Q1006 NOSIG

VHHH Flight Activity (Flightaware)

Listeners: 1 out of 809 total

Hong Kong Tower (South): 118.400

VHHH Zone (Archives)
Hong Kong, Hong Kong

Feed Status: UP
Listen in your browser - HTML5 player(in browser, HTML5)
Click here to listen with your own player(launches your MP3 player)

VHHH 220500Z 27007KT 9999 FEW030 32/25 Q1006 NOSIG

VHHH Flight Activity (Flightaware)

Listeners: 0 out of 809 total

Hong Kong Zone: 120.600

VTBS Approach (East) (Archives)
Bangkok, Thailand

Feed Status: UP
Listen in your browser - HTML5 player(in browser, HTML5)
Click here to listen with your own player(launches your MP3 player)

VTBS 220500Z 18016KT 9999 FEW020 SCT035 31/24 Q1008 NOSIG

VTBS Flight Activity (Flightaware)

Listeners: 2 out of 809 total

Bangkok Approach (East): 122.350

VTBS Approach (North) (Archives)
Bangkok, Thailand

Feed Status: UP
Listen in your browser - HTML5 player(in browser, HTML5)
Click here to listen with your own player(launches your MP3 player)

VTBS 220500Z 18016KT 9999 FEW020 SCT035 31/24 Q1008 NOSIG

VTBS Flight Activity (Flightaware)

Listeners: 0 out of 809 total

Bangkok Approach (North): 121.700

VTBS Approach 119.1 (Archives)
Bangkok, Thailand

Feed Status: UP
Listen in your browser - HTML5 player(in browser, HTML5)
Click here to listen with your own player(launches your MP3 player)

VTBS 220500Z 18016KT 9999 FEW020 SCT035 31/24 Q1008 NOSIG

VTBS Flight Activity (Flightaware)

Listeners: 0 out of 809 total

Bangkok Approach: 119.100

VTBS Approach 119.4 (Archives)
Bangkok, Thailand

Feed Status: UP
Listen in your browser - HTML5 player(in browser, HTML5)
Click here to listen with your own player(launches your MP3 player)

VTBS 220500Z 18016KT 9999 FEW020 SCT035 31/24 Q1008 NOSIG

VTBS Flight Activity (Flightaware)

Listeners: 0 out of 809 total

Bangkok Approach: 119.400

VTBS Approach 120.3 (Archives)
Bangkok, Thailand

Feed Status: UP
Listen in your browser - HTML5 player(in browser, HTML5)
Click here to listen with your own player(launches your MP3 player)

VTBS 220500Z 18016KT 9999 FEW020 SCT035 31/24 Q1008 NOSIG

VTBS Flight Activity (Flightaware)

Listeners: 1 out of 809 total

Bangkok Approach: 120.300

VTBS Approach/Arrival (Archives)
Bangkok, Thailand

Feed Status: UP
Listen in your browser - HTML5 player(in browser, HTML5)
Click here to listen with your own player(launches your MP3 player)

VTBS 220500Z 18016KT 9999 FEW020 SCT035 31/24 Q1008 NOSIG

VTBS Flight Activity (Flightaware)

Listeners: 0 out of 809 total

Bangkok Approach: 124.350
Bangkok Approach: 125.200
Bangkok Approach: 124.700
Bangkok Approach: 126.300
Bangkok Approach: 133.400
Bangkok Arrival (VTBD): 125.500

VTBS Arrival 121.1 (Archives)
Bangkok, Thailand

Feed Status: UP
Listen in your browser - HTML5 player(in browser, HTML5)
Click here to listen with your own player(launches your MP3 player)

VTBS 220500Z 18016KT 9999 FEW020 SCT035 31/24 Q1008 NOSIG

VTBS Flight Activity (Flightaware)

Listeners: 1 out of 809 total

Bangkok Arrival: 121.100

VTBS ATIS (Archives)
Bangkok, Thailand

Feed Status: UP
Listen in your browser - HTML5 player(in browser, HTML5)
Click here to listen with your own player(launches your MP3 player)

VTBS 220500Z 18016KT 9999 FEW020 SCT035 31/24 Q1008 NOSIG

VTBS Flight Activity (Flightaware)

Listeners: 0 out of 809 total

Bangkok D-ATIS: 133.600

VTBS Control (FIR) (Archives)
Bangkok, Thailand

Feed Status: UP
Listen in your browser - HTML5 player(in browser, HTML5)
Click here to listen with your own player(launches your MP3 player)

VTBS 220500Z 18016KT 9999 FEW020 SCT035 31/24 Q1008 NOSIG

VTBS Flight Activity (Flightaware)

Listeners: 1 out of 809 total

Bangkok FIR (Sector 3): 135.500

VTBS Departure (Archives)
Bangkok, Thailand

Feed Status: UP
Listen in your browser - HTML5 player(in browser, HTML5)
Click here to listen with your own player(launches your MP3 player)

VTBS 220500Z 18016KT 9999 FEW020 SCT035 31/24 Q1008 NOSIG

VTBS Flight Activity (Flightaware)

Listeners: 0 out of 809 total

Bangkok Departure: 119.250

VTBS Ground (East) (Archives)
Bangkok, Thailand

Feed Status: UP
Listen in your browser - HTML5 player(in browser, HTML5)
Click here to listen with your own player(launches your MP3 player)

VTBS 220500Z 18016KT 9999 FEW020 SCT035 31/24 Q1008 NOSIG

VTBS Flight Activity (Flightaware)

Listeners: 0 out of 809 total

Bangkok Ground (East): 121.650

VTBS Ground (Main) (Archives)
Bangkok, Thailand

Feed Status: UP
Listen in your browser - HTML5 player(in browser, HTML5)
Click here to listen with your own player(launches your MP3 player)

VTBS 220500Z 18016KT 9999 FEW020 SCT035 31/24 Q1008 NOSIG

VTBS Flight Activity (Flightaware)

Listeners: 0 out of 809 total

Bangkok Ground (Main): 121.750

VTBS Ground (West) (Archives)
Bangkok, Thailand

Feed Status: UP
Listen in your browser - HTML5 player(in browser, HTML5)
Click here to listen with your own player(launches your MP3 player)

VTBS 220500Z 18016KT 9999 FEW020 SCT035 31/24 Q1008 NOSIG

VTBS Flight Activity (Flightaware)

Listeners: 0 out of 809 total

Bangkok Ground (West): 121.950

VTBS Tower (Archives)
Bangkok, Thailand

Feed Status: UP
Listen in your browser - HTML5 player(in browser, HTML5)
Click here to listen with your own player(launches your MP3 player)

VTBS 220500Z 18016KT 9999 FEW020 SCT035 31/24 Q1008 NOSIG

VTBS Flight Activity (Flightaware)

Listeners: 0 out of 809 total

Bangkok Tower (Rwy 01L/19R): 119.000
Bangkok Tower (Rwy 01R/19L): 118.200

VTBS Tower (Rwy 01L/19R) (Archives)
Bangkok, Thailand

Feed Status: UP
Listen in your browser - HTML5 player(in browser, HTML5)
Click here to listen with your own player(launches your MP3 player)

VTBS 220500Z 18016KT 9999 FEW020 SCT035 31/24 Q1008 NOSIG

VTBS Flight Activity (Flightaware)

Listeners: 0 out of 809 total

Bangkok Tower (Rwy 01L/19R): 119.000

VTBS Tower (Rwy 01R/19L) (Archives)
Bangkok, Thailand

Feed Status: UP
Listen in your browser - HTML5 player(in browser, HTML5)
Click here to listen with your own player(launches your MP3 player)

VTBS 220500Z 18016KT 9999 FEW020 SCT035 31/24 Q1008 NOSIG

VTBS Flight Activity (Flightaware)

Listeners: 0 out of 809 total

Bangkok Tower (Rwy 01R/19L): 118.200

WAHH Approach
Yogyakarta, Indonesia

Feed Status: DOWN
Offline since: 2019-01-09 17:03:03 UTC

Adisutjipto Approach: 123.400

WBKK Gnd/Twr/App (Archives)
Kota Kinabalu, Malaysia

Feed Status: UP
Listen in your browser - HTML5 player(in browser, HTML5)
Click here to listen with your own player(launches your MP3 player)

WBKK 220500Z 27008KT 240V300 9999 FEW014 BKN290 32/26 Q1009 NOSIG


Listeners: 2 out of 809 total

Kinabalu Director: 119.100
Kinabalu Ground: 121.600
Kinabalu Radar: 126.100
Kinabalu Radar: 132.450
Kinabalu Tower: 118.300

WBKK Gnd/Twr/Radar/Control (Archives)
Kota Kinabalu, Malaysia

Feed Status: UP
Listen in your browser - HTML5 player(in browser, HTML5)
Click here to listen with your own player(launches your MP3 player)

WBKK 220500Z 27008KT 240V300 9999 FEW014 BKN290 32/26 Q1009 NOSIG


Listeners: 2 out of 809 total

Kinabalu Director: 119.100
Kinabalu Ground: 121.600
Kinabalu Radar: 126.100
Kinabalu Radar: 132.450
Kinabalu Radar: 128.300
Kinabalu Tower: 118.300

WBKS Approach (Archives)
Sandakan, Malaysia

Feed Status: UP
Listen in your browser - HTML5 player(in browser, HTML5)
Click here to listen with your own player(launches your MP3 player)

WBKS 220500Z 21006KT 140V280 9999 FEW016 BKN300 32/23 Q1009


Listeners: 0 out of 809 total

Sandakan Approach/Departure: 123.200

WBKS ATIS (Archives)
Sandakan, Malaysia

Feed Status: UP
Listen in your browser - HTML5 player(in browser, HTML5)
Click here to listen with your own player(launches your MP3 player)

WBKS 220500Z 21006KT 140V280 9999 FEW016 BKN300 32/23 Q1009


Listeners: 0 out of 809 total

Sandakan ATIS: 128.200

WBKS Emergency/Guard (Archives)
Sandakan, Malaysia

Feed Status: UP
Listen in your browser - HTML5 player(in browser, HTML5)
Click here to listen with your own player(launches your MP3 player)

WBKS 220500Z 21006KT 140V280 9999 FEW016 BKN300 32/23 Q1009


Listeners: 0 out of 809 total

Emergency/Guard: 121.500

WBKS Gnd/Twr/App/Guard (Archives)
Sandakan, Malaysia

Feed Status: UP
Listen in your browser - HTML5 player(in browser, HTML5)
Click here to listen with your own player(launches your MP3 player)

WBKS 220500Z 21006KT 140V280 9999 FEW016 BKN300 32/23 Q1009


Listeners: 0 out of 809 total

Emergency/Guard: 121.500
Sandakan Approach/Departure: 123.200
Sandakan Ground: 121.900
Sandakan Tower: 122.050

WBKS Ground (Archives)
Sandakan, Malaysia

Feed Status: UP
Listen in your browser - HTML5 player(in browser, HTML5)
Click here to listen with your own player(launches your MP3 player)

WBKS 220500Z 21006KT 140V280 9999 FEW016 BKN300 32/23 Q1009


Listeners: 0 out of 809 total

Sandakan Ground: 121.900

WBKS Tower (Archives)
Sandakan, Malaysia

Feed Status: UP
Listen in your browser - HTML5 player(in browser, HTML5)
Click here to listen with your own player(launches your MP3 player)

WBKS 220500Z 21006KT 140V280 9999 FEW016 BKN300 32/23 Q1009


Listeners: 0 out of 809 total

Sandakan Tower: 122.050

WMKB Radar (Archives)
Penang, Malaysia

Feed Status: UP
Listen in your browser - HTML5 player(in browser, HTML5)
Click here to listen with your own player(launches your MP3 player)

WMKB 220500Z 28005KT 240V340 9999 FEW020 SCT140 BKN280 31/25 Q1011 NOSIG


Listeners: 2 out of 809 total

Butterworth Radar: 125.800

ZBAA Tower (Archives)
Beijing, China

Feed Status: UP
Listen in your browser - HTML5 player(in browser, HTML5)
Click here to listen with your own player(launches your MP3 player)

ZBAA 220500Z 32007G12MPS CAVOK 30/11 Q1010 NOSIG


Listeners: 16 out of 809 total

Beijing Tower (Rwy 01/19): 118.600

ZGKL App/Control
Guilin, China

Feed Status: DOWN
Offline since: 2019-07-30 22:39:22 UTC

ZGKL 220500Z 16003MPS 9999 SCT040 36/22 Q1007 NOSIG

Guilin Approach: 120.850
Guilin Control: 133.600

ZHNY Tower (Archives)
Nanyang, China

Feed Status: UP
Listen in your browser - HTML5 player(in browser, HTML5)
Click here to listen with your own player(launches your MP3 player)


Listeners: 1 out of 809 total

Nanyang Tower: 118.500

ZYCY Tower (Archives)
Chaoyang, China

Feed Status: UP
Listen in your browser - HTML5 player(in browser, HTML5)
Click here to listen with your own player(launches your MP3 player)

ZYCY 140700Z 25002MPS CAVOK 29/16 Q1006 NOSIG


Listeners: 0 out of 809 total

Chaoyang Tower: 118.350